Date,TemperatureHighF,TemperatureAvgF,TemperatureLowF,DewpointHighF,DewpointAvgF,DewpointLowF,HumidityHigh,HumidityAvg,HumidityLow,PressureMaxIn,PressureMinIn,WindSpeedMaxMPH,WindSpeedAvgMPH,GustSpeedMaxMPH,PrecipitationSumIn
2013-2-1,79.5,67.1,57.1,64.0,51.4,45.0,74,59,30,30.10,29.99,9,1,15,0.00
2013-2-2,88.5,70.3,58.0,68.0,51.7,37.0,83,55,18,30.06,29.95,10,1,16,0.00
2013-2-3,85.7,68.7,56.8,67.0,53.6,41.0,78,60,21,30.02,29.93,11,1,14,0.00
2013-2-4,84.6,68.5,55.9,67.0,54.2,42.0,87,62,23,30.01,29.92,11,1,12,0.00
2013-2-5,79.2,68.7,59.1,62.0,57.1,52.0,89,68,44,30.02,29.92,9,1,12,0.00
2013-2-6,79.2,67.1,57.8,63.0,56.9,51.0,84,71,39,30.01,29.94,9,1,13,0.00
2013-2-7,80.3,66.5,56.1,66.0,57.7,50.0,92,75,43,30.03,29.93,7,1,12,0.00
2013-2-8,75.8,65.5,54.8,66.0,60.2,53.0,94,84,65,30.03,29.90,7,1,12,0.00
2013-2-9,78.4,65.8,54.1,67.0,58.4,52.0,95,78,50,29.99,29.91,10,1,16,0.01
2013-2-10,69.3,63.2,59.9,61.0,57.4,56.0,89,82,71,30.07,29.96,7,1,10,0.00
2013-2-11,74.5,64.4,55.4,60.0,56.5,53.0,92,76,58,30.13,30.04,10,1,12,0.00
2013-2-12,71.6,64.2,57.4,57.0,52.0,47.0,75,65,54,30.14,30.03,10,2,13,0.00
2013-2-13,74.6,60.3,46.7,54.0,48.0,43.0,86,66,39,30.09,29.99,10,2,16,0.00
2013-2-14,80.5,61.5,45.7,57.0,48.0,40.0,85,64,28,30.05,29.95,9,1,14,0.00
2013-2-15,82.7,64.0,49.1,57.0,47.7,31.0,92,61,16,30.04,29.94,8,1,12,0.00
2013-2-16,83.5,66.5,53.7,62.0,50.3,33.0,85,60,17,30.02,29.93,9,2,12,0.00
2013-2-17,77.8,66.0,54.5,61.0,55.2,48.0,84,70,44,30.03,29.94,9,2,13,0.00
2013-2-18,79.4,67.4,53.8,66.0,57.1,45.0,88,70,50,30.03,29.92,7,1,12,0.00
2013-2-19,81.8,68.7,57.7,67.0,56.9,49.0,87,67,34,29.97,29.85,8,1,12,0.00
2013-2-20,78.9,67.5,60.2,66.0,56.5,47.0,87,70,36,29.95,29.87,8,1,13,0.00
2013-2-21,74.3,64.9,57.9,58.0,54.1,49.0,80,69,50,30.02,29.92,8,2,13,0.00
2013-2-22,73.7,63.0,52.2,58.0,53.8,49.0,90,73,51,30.06,29.95,10,1,12,0.00
2013-2-23,77.0,62.3,50.5,57.0,51.1,46.0,86,69,34,30.01,29.90,11,2,14,0.00
2013-2-24,73.5,62.4,50.0,61.0,55.2,47.0,91,78,59,30.00,29.89,9,1,13,0.00
2013-2-25,78.9,66.1,55.6,58.0,46.8,39.0,78,52,30,30.02,29.86,14,3,18,0.00
2013-2-26,79.4,61.9,44.3,56.0,44.0,29.0,81,55,16,29.98,29.88,13,1,15,0.00
2013-2-27,79.3,64.6,51.4,57.0,49.0,37.0,86,60,23,30.04,29.95,12,2,14,0.00
2013-2-28,87.7,70.8,58.5,58.0,40.0,26.0,69,36,11,30.01,29.92,18,3,21,0.00